owner,sensor,date,latitude,longitude,sea_surface_height_above_sea_level,qcFlag 
COMPS,ioos:station:USF.COMPS:BGC:1,2009-01-01T00:00:00Z,26.4040,-81.8810,-0.204,1111122 
COMPS,ioos:station:USF.COMPS:BGC:1,2009-01-01T00:06:00Z,26.4040,-81.8810,-0.202,1111122 
COMPS,ioos:station:USF.COMPS:BGC:1,2009-01-01T00:12:00Z,26.4040,-81.8810,-0.209,1111122 
COMPS,ioos:station:USF.COMPS:BGC:1,2009-01-01T00:18:00Z,26.4040,-81.8810,-0.224,1111122 
COMPS,ioos:station:USF.COMPS:BGC:1,2009-01-01T00:24:00Z,26.4040,-81.8810,-0.226,1111122 
COMPS,ioos:station:USF.COMPS:BGC:1,2009-01-01T00:30:00Z,26.4040,-81.8810,-0.228,1111122 
COMPS,ioos:station:USF.COMPS:BGC:1,2009-01-01T00:36:00Z,26.4040,-81.8810,-0.238,1111122 
COMPS,ioos:station:USF.COMPS:BGC:1,2009-01-01T00:42:00Z,26.4040,-81.8810,-0.243,1111122 
COMPS,ioos:station:USF.COMPS:BGC:1,2009-01-01T00:48:00Z,26.4040,-81.8810,-0.248,1111122 
COMPS,ioos:station:USF.COMPS:BGC:1,2009-01-01T00:54:00Z,26.4040,-81.8810,-0.244,1111122 
COMPS,ioos:station:USF.COMPS:BGC:1,2009-01-01T01:00:00Z,26.4040,-81.8810,-0.252,1111122 
COMPS,ioos:station:USF.COMPS:BGC:1,2009-01-01T01:06:00Z,26.4040,-81.8810,-0.258,1111122 
COMPS,ioos:station:USF.COMPS:BGC:1,2009-01-01T01:12:00Z,26.4040,-81.8810,-0.267,1111122 
COMPS,ioos:station:USF.COMPS:BGC:1,2009-01-01T01:18:00Z,26.4040,-81.8810,-0.266,1111122 
COMPS,ioos:station:USF.COMPS:BGC:1,2009-01-01T01:24:00Z,26.4040,-81.8810,-0.276,1111122 
COMPS,ioos:station:USF.COMPS:BGC:1,2009-01-01T01:30:00Z,26.4040,-81.8810,-0.276,1111122 
COMPS,ioos:station:USF.COMPS:BGC:1,2009-01-01T01:36:00Z,26.4040,-81.8810,-0.28,1111122 
COMPS,ioos:station:USF.COMPS:BGC:1,2009-01-01T01:42:00Z,26.4040,-81.8810,-0.274,1111122 
COMPS,ioos:station:USF.COMPS:BGC:1,2009-01-01T01:48:00Z,26.4040,-81.8810,-0.281,1111122 
COMPS,ioos:station:USF.COMPS:BGC:1,2009-01-01T01:54:00Z,26.4040,-81.8810,-0.285,1111122 
COMPS,ioos:station:USF.COMPS:BGC:1,2009-01-01T02:00:00Z,26.4040,-81.8810,-0.282,1111122 
COMPS,ioos:station:USF.COMPS:BGC:1,2009-01-01T02:06:00Z,26.4040,-81.8810,-0.282,1111122 
COMPS,ioos:station:USF.COMPS:BGC:1,2009-01-01T02:12:00Z,26.4040,-81.8810,-0.285,1111122 
COMPS,ioos:station:USF.COMPS:BGC:1,2009-01-01T02:18:00Z,26.4040,-81.8810,-0.283,1111122 
COMPS,ioos:station:USF.COMPS:BGC:1,2009-01-01T02:24:00Z,26.4040,-81.8810,-0.28,1111122 
COMPS,ioos:station:USF.COMPS:BGC:1,2009-01-01T02:30:00Z,26.4040,-81.8810,-0.284,1111122 
COMPS,ioos:station:USF.COMPS:BGC:1,2009-01-01T02:36:00Z,26.4040,-81.8810,-0.279,1111122 
COMPS,ioos:station:USF.COMPS:BGC:1,2009-01-01T02:42:00Z,26.4040,-81.8810,-0.278,1111122 
COMPS,ioos:station:USF.COMPS:BGC:1,2009-01-01T02:48:00Z,26.4040,-81.8810,-0.276,1111122 
COMPS,ioos:station:USF.COMPS:BGC:1,2009-01-01T02:54:00Z,26.4040,-81.8810,-0.26,1111122 
COMPS,ioos:station:USF.COMPS:BGC:1,2009-01-01T03:00:00Z,26.4040,-81.8810,-0.263,1111122 
COMPS,ioos:station:USF.COMPS:BGC:1,2009-01-01T03:06:00Z,26.4040,-81.8810,-0.252,1111122 
COMPS,ioos:station:USF.COMPS:BGC:1,2009-01-01T03:12:00Z,26.4040,-81.8810,-0.248,1111122 
COMPS,ioos:station:USF.COMPS:BGC:1,2009-01-01T03:18:00Z,26.4040,-81.8810,-0.244,1111122 
COMPS,ioos:station:USF.COMPS:BGC:1,2009-01-01T03:24:00Z,26.4040,-81.8810,-0.241,1111122 
COMPS,ioos:station:USF.COMPS:BGC:1,2009-01-01T03:30:00Z,26.4040,-81.8810,-0.231,1111122 
COMPS,ioos:station:USF.COMPS:BGC:1,2009-01-01T03:36:00Z,26.4040,-81.8810,-0.221,1111122 
COMPS,ioos:station:USF.COMPS:BGC:1,2009-01-01T03:42:00Z,26.4040,-81.8810,-0.218,1111122 
COMPS,ioos:station:USF.COMPS:BGC:1,2009-01-01T03:48:00Z,26.4040,-81.8810,-0.205,1111122 
COMPS,ioos:station:USF.COMPS:BGC:1,2009-01-01T03:54:00Z,26.4040,-81.8810,-0.194,1111122 
COMPS,ioos:station:USF.COMPS:BGC:1,2009-01-01T04:00:00Z,26.4040,-81.8810,-0.18,1111122 
COMPS,ioos:station:USF.COMPS:BGC:1,2009-01-01T04:06:00Z,26.4040,-81.8810,-0.175,1111122 
COMPS,ioos:station:USF.COMPS:BGC:1,2009-01-01T04:12:00Z,26.4040,-81.8810,-0.171,1111122 
COMPS,ioos:station:USF.COMPS:BGC:1,2009-01-01T04:18:00Z,26.4040,-81.8810,-0.16,1111122 
COMPS,ioos:station:USF.COMPS:BGC:1,2009-01-01T04:24:00Z,26.4040,-81.8810,-0.147,1111122 
COMPS,ioos:station:USF.COMPS:BGC:1,2009-01-01T04:30:00Z,26.4040,-81.8810,-0.131,1111122 
COMPS,ioos:station:USF.COMPS:BGC:1,2009-01-01T04:36:00Z,26.4040,-81.8810,-0.108,1111122 
COMPS,ioos:station:USF.COMPS:BGC:1,2009-01-01T04:42:00Z,26.4040,-81.8810,-0.101,1111122 
COMPS,ioos:station:USF.COMPS:BGC:1,2009-01-01T04:48:00Z,26.4040,-81.8810,-0.083,1111122 
COMPS,ioos:station:USF.COMPS:BGC:1,2009-01-01T04:54:00Z,26.4040,-81.8810,-0.071,1111122 
COMPS,ioos:station:USF.COMPS:BGC:1,2009-01-01T05:00:00Z,26.4040,-81.8810,-0.068,1111122 
COMPS,ioos:station:USF.COMPS:BGC:1,2009-01-01T05:06:00Z,26.4040,-81.8810,-0.055,1111122 
COMPS,ioos:station:USF.COMPS:BGC:1,2009-01-01T05:12:00Z,26.4040,-81.8810,-0.051,1111122 
COMPS,ioos:station:USF.COMPS:BGC:1,2009-01-01T05:18:00Z,26.4040,-81.8810,-0.04,1111122 
COMPS,ioos:station:USF.COMPS:BGC:1,2009-01-01T05:24:00Z,26.4040,-81.8810,-0.031,1111122 
COMPS,ioos:station:USF.COMPS:BGC:1,2009-01-01T05:30:00Z,26.4040,-81.8810,-0.014,1111122 
COMPS,ioos:station:USF.COMPS:BGC:1,2009-01-01T05:36:00Z,26.4040,-81.8810,-0.011,1111122 
COMPS,ioos:station:USF.COMPS:BGC:1,2009-01-01T05:42:00Z,26.4040,-81.8810,-0.021,1111122 
COMPS,ioos:station:USF.COMPS:BGC:1,2009-01-01T05:48:00Z,26.4040,-81.8810,-0.015,1111122 
COMPS,ioos:station:USF.COMPS:BGC:1,2009-01-01T05:54:00Z,26.4040,-81.8810,0.003,1111122 
COMPS,ioos:station:USF.COMPS:BGC:1,2009-01-01T06:00:00Z,26.4040,-81.8810,-0.001,1111122 
COMPS,ioos:station:USF.COMPS:BGC:1,2009-01-01T06:06:00Z,26.4040,-81.8810,0.009,1111122 
COMPS,ioos:station:USF.COMPS:BGC:1,2009-01-01T06:12:00Z,26.4040,-81.8810,0.01,1111122 
COMPS,ioos:station:USF.COMPS:BGC:1,2009-01-01T06:18:00Z,26.4040,-81.8810,0.009,1111122 
COMPS,ioos:station:USF.COMPS:BGC:1,2009-01-01T06:24:00Z,26.4040,-81.8810,0.02,1111122 
COMPS,ioos:station:USF.COMPS:BGC:1,2009-01-01T06:30:00Z,26.4040,-81.8810,0.009,1111122 
COMPS,ioos:station:USF.COMPS:BGC:1,2009-01-01T06:36:00Z,26.4040,-81.8810,0.023,1111122 
COMPS,ioos:station:USF.COMPS:BGC:1,2009-01-01T06:42:00Z,26.4040,-81.8810,0.012,1111122 
COMPS,ioos:station:USF.COMPS:BGC:1,2009-01-01T06:48:00Z,26.4040,-81.8810,0.014,1111122 
COMPS,ioos:station:USF.COMPS:BGC:1,2009-01-01T06:54:00Z,26.4040,-81.8810,0.017,1111122 
COMPS,ioos:station:USF.COMPS:BGC:1,2009-01-01T07:00:00Z,26.4040,-81.8810,0.016,1111122 
COMPS,ioos:station:USF.COMPS:BGC:1,2009-01-01T07:06:00Z,26.4040,-81.8810,0.016,1111122 
COMPS,ioos:station:USF.COMPS:BGC:1,2009-01-01T07:12:00Z,26.4040,-81.8810,0.01,1111122 
COMPS,ioos:station:USF.COMPS:BGC:1,2009-01-01T07:18:00Z,26.4040,-81.8810,0.01,1111122 
COMPS,ioos:station:USF.COMPS:BGC:1,2009-01-01T07:24:00Z,26.4040,-81.8810,0.019,1111122 
COMPS,ioos:station:USF.COMPS:BGC:1,2009-01-01T07:30:00Z,26.4040,-81.8810,0.005,1111122 
COMPS,ioos:station:USF.COMPS:BGC:1,2009-01-01T07:36:00Z,26.4040,-81.8810,0.008,1111122 
COMPS,ioos:station:USF.COMPS:BGC:1,2009-01-01T07:42:00Z,26.4040,-81.8810,0.009,1111122 
COMPS,ioos:station:USF.COMPS:BGC:1,2009-01-01T07:48:00Z,26.4040,-81.8810,0.008,1111122 
COMPS,ioos:station:USF.COMPS:BGC:1,2009-01-01T07:54:00Z,26.4040,-81.8810,0.0,1114422 
COMPS,ioos:station:USF.COMPS:BGC:1,2009-01-01T08:00:00Z,26.4040,-81.8810,-0.007,1111122 
COMPS,ioos:station:USF.COMPS:BGC:1,2009-01-01T08:06:00Z,26.4040,-81.8810,-0.009,1111122 
COMPS,ioos:station:USF.COMPS:BGC:1,2009-01-01T08:12:00Z,26.4040,-81.8810,-0.004,1111122 
COMPS,ioos:station:USF.COMPS:BGC:1,2009-01-01T08:18:00Z,26.4040,-81.8810,-0.011,1111122 
COMPS,ioos:station:USF.COMPS:BGC:1,2009-01-01T08:24:00Z,26.4040,-81.8810,-0.023,1111122 
COMPS,ioos:station:USF.COMPS:BGC:1,2009-01-01T08:30:00Z,26.4040,-81.8810,-0.018,1111122 
COMPS,ioos:station:USF.COMPS:BGC:1,2009-01-01T08:36:00Z,26.4040,-81.8810,-0.03,1111122 
COMPS,ioos:station:USF.COMPS:BGC:1,2009-01-01T08:42:00Z,26.4040,-81.8810,-0.031,1111122 
COMPS,ioos:station:USF.COMPS:BGC:1,2009-01-01T08:48:00Z,26.4040,-81.8810,-0.031,1111122 
COMPS,ioos:station:USF.COMPS:BGC:1,2009-01-01T08:54:00Z,26.4040,-81.8810,-0.044,1111122 
COMPS,ioos:station:USF.COMPS:BGC:1,2009-01-01T09:00:00Z,26.4040,-81.8810,-0.058,1111122 
COMPS,ioos:station:USF.COMPS:BGC:1,2009-01-01T09:06:00Z,26.4040,-81.8810,-0.063,1111122 
COMPS,ioos:station:USF.COMPS:BGC:1,2009-01-01T09:12:00Z,26.4040,-81.8810,-0.07,1111122 
COMPS,ioos:station:USF.COMPS:BGC:1,2009-01-01T09:18:00Z,26.4040,-81.8810,-0.083,1111122 
COMPS,ioos:station:USF.COMPS:BGC:1,2009-01-01T09:24:00Z,26.4040,-81.8810,-0.095,1111122 
COMPS,ioos:station:USF.COMPS:BGC:1,2009-01-01T09:30:00Z,26.4040,-81.8810,-0.094,1111122 
COMPS,ioos:station:USF.COMPS:BGC:1,2009-01-01T09:36:00Z,26.4040,-81.8810,-0.116,1111122 
COMPS,ioos:station:USF.COMPS:BGC:1,2009-01-01T09:42:00Z,26.4040,-81.8810,-0.13,1111122 
COMPS,ioos:station:USF.COMPS:BGC:1,2009-01-01T09:48:00Z,26.4040,-81.8810,-0.146,1111122 
COMPS,ioos:station:USF.COMPS:BGC:1,2009-01-01T09:54:00Z,26.4040,-81.8810,-0.153,1111122 
COMPS,ioos:station:USF.COMPS:BGC:1,2009-01-01T10:00:00Z,26.4040,-81.8810,-0.158,1111122 
COMPS,ioos:station:USF.COMPS:BGC:1,2009-01-01T10:06:00Z,26.4040,-81.8810,-0.169,1111122 
COMPS,ioos:station:USF.COMPS:BGC:1,2009-01-01T10:12:00Z,26.4040,-81.8810,-0.181,1111122 
COMPS,ioos:station:USF.COMPS:BGC:1,2009-01-01T10:18:00Z,26.4040,-81.8810,-0.205,1111122 
COMPS,ioos:station:USF.COMPS:BGC:1,2009-01-01T10:24:00Z,26.4040,-81.8810,-0.21,1111122 
COMPS,ioos:station:USF.COMPS:BGC:1,2009-01-01T10:30:00Z,26.4040,-81.8810,-0.227,1111122 
COMPS,ioos:station:USF.COMPS:BGC:1,2009-01-01T10:36:00Z,26.4040,-81.8810,-0.241,1111122 
COMPS,ioos:station:USF.COMPS:BGC:1,2009-01-01T10:42:00Z,26.4040,-81.8810,-0.251,1111122 
COMPS,ioos:station:USF.COMPS:BGC:1,2009-01-01T10:48:00Z,26.4040,-81.8810,-0.269,1111122 
COMPS,ioos:station:USF.COMPS:BGC:1,2009-01-01T10:54:00Z,26.4040,-81.8810,-0.29,1111122 
COMPS,ioos:station:USF.COMPS:BGC:1,2009-01-01T11:00:00Z,26.4040,-81.8810,-0.297,1111122 
COMPS,ioos:station:USF.COMPS:BGC:1,2009-01-01T11:06:00Z,26.4040,-81.8810,-0.306,1111122 
COMPS,ioos:station:USF.COMPS:BGC:1,2009-01-01T11:12:00Z,26.4040,-81.8810,-0.318,1111122 
COMPS,ioos:station:USF.COMPS:BGC:1,2009-01-01T11:18:00Z,26.4040,-81.8810,-0.329,1111122 
COMPS,ioos:station:USF.COMPS:BGC:1,2009-01-01T11:24:00Z,26.4040,-81.8810,-0.348,1111122 
COMPS,ioos:station:USF.COMPS:BGC:1,2009-01-01T11:30:00Z,26.4040,-81.8810,-0.359,1111122 
COMPS,ioos:station:USF.COMPS:BGC:1,2009-01-01T11:36:00Z,26.4040,-81.8810,-0.363,1111122 
COMPS,ioos:station:USF.COMPS:BGC:1,2009-01-01T11:42:00Z,26.4040,-81.8810,-0.385,1111122 
COMPS,ioos:station:USF.COMPS:BGC:1,2009-01-01T11:48:00Z,26.4040,-81.8810,-0.397,1111122 
COMPS,ioos:station:USF.COMPS:BGC:1,2009-01-01T11:54:00Z,26.4040,-81.8810,-0.406,1111122 
COMPS,ioos:station:USF.COMPS:BGC:1,2009-01-01T12:00:00Z,26.4040,-81.8810,-0.413,1111122 
COMPS,ioos:station:USF.COMPS:BGC:1,2009-01-01T12:06:00Z,26.4040,-81.8810,-0.427,1111122 
COMPS,ioos:station:USF.COMPS:BGC:1,2009-01-01T12:12:00Z,26.4040,-81.8810,-0.436,1111122 
COMPS,ioos:station:USF.COMPS:BGC:1,2009-01-01T12:18:00Z,26.4040,-81.8810,-0.444,1111122 
COMPS,ioos:station:USF.COMPS:BGC:1,2009-01-01T12:24:00Z,26.4040,-81.8810,-0.457,1111122 
COMPS,ioos:station:USF.COMPS:BGC:1,2009-01-01T12:30:00Z,26.4040,-81.8810,-0.469,1111122 
COMPS,ioos:station:USF.COMPS:BGC:1,2009-01-01T12:36:00Z,26.4040,-81.8810,-0.48,1111122 
COMPS,ioos:station:USF.COMPS:BGC:1,2009-01-01T12:42:00Z,26.4040,-81.8810,-0.499,1111122 
COMPS,ioos:station:USF.COMPS:BGC:1,2009-01-01T12:48:00Z,26.4040,-81.8810,-0.503,1111122 
COMPS,ioos:station:USF.COMPS:BGC:1,2009-01-01T12:54:00Z,26.4040,-81.8810,-0.502,1111122 
COMPS,ioos:station:USF.COMPS:BGC:1,2009-01-01T13:00:00Z,26.4040,-81.8810,-0.525,1111122 
COMPS,ioos:station:USF.COMPS:BGC:1,2009-01-01T13:06:00Z,26.4040,-81.8810,-0.538,1111122 
COMPS,ioos:station:USF.COMPS:BGC:1,2009-01-01T13:12:00Z,26.4040,-81.8810,-0.543,1111122 
COMPS,ioos:station:USF.COMPS:BGC:1,2009-01-01T13:18:00Z,26.4040,-81.8810,-0.55,1111122 
COMPS,ioos:station:USF.COMPS:BGC:1,2009-01-01T13:24:00Z,26.4040,-81.8810,-0.563,1111122 
COMPS,ioos:station:USF.COMPS:BGC:1,2009-01-01T13:30:00Z,26.4040,-81.8810,-0.568,1111122 
COMPS,ioos:station:USF.COMPS:BGC:1,2009-01-01T13:36:00Z,26.4040,-81.8810,-0.577,1111122 
COMPS,ioos:station:USF.COMPS:BGC:1,2009-01-01T13:42:00Z,26.4040,-81.8810,-0.584,1111122 
COMPS,ioos:station:USF.COMPS:BGC:1,2009-01-01T13:48:00Z,26.4040,-81.8810,-0.591,1111122 
COMPS,ioos:station:USF.COMPS:BGC:1,2009-01-01T13:54:00Z,26.4040,-81.8810,-0.599,1111122 
COMPS,ioos:station:USF.COMPS:BGC:1,2009-01-01T14:00:00Z,26.4040,-81.8810,-0.608,1111122 
COMPS,ioos:station:USF.COMPS:BGC:1,2009-01-01T14:06:00Z,26.4040,-81.8810,-0.616,1111122 
COMPS,ioos:station:USF.COMPS:BGC:1,2009-01-01T14:12:00Z,26.4040,-81.8810,-0.615,1111122 
COMPS,ioos:station:USF.COMPS:BGC:1,2009-01-01T14:18:00Z,26.4040,-81.8810,-0.633,1111122 
COMPS,ioos:station:USF.COMPS:BGC:1,2009-01-01T14:24:00Z,26.4040,-81.8810,-0.647,1111122 
COMPS,ioos:station:USF.COMPS:BGC:1,2009-01-01T14:30:00Z,26.4040,-81.8810,-0.641,1111122 
COMPS,ioos:station:USF.COMPS:BGC:1,2009-01-01T14:36:00Z,26.4040,-81.8810,-0.636,1111122 
COMPS,ioos:station:USF.COMPS:BGC:1,2009-01-01T14:42:00Z,26.4040,-81.8810,-0.64,1111122 
COMPS,ioos:station:USF.COMPS:BGC:1,2009-01-01T14:48:00Z,26.4040,-81.8810,-0.633,1111122 
COMPS,ioos:station:USF.COMPS:BGC:1,2009-01-01T14:54:00Z,26.4040,-81.8810,-0.632,1111122 
COMPS,ioos:station:USF.COMPS:BGC:1,2009-01-01T15:00:00Z,26.4040,-81.8810,-0.633,1111122 
COMPS,ioos:station:USF.COMPS:BGC:1,2009-01-01T15:06:00Z,26.4040,-81.8810,-0.628,1111122 
COMPS,ioos:station:USF.COMPS:BGC:1,2009-01-01T15:12:00Z,26.4040,-81.8810,-0.628,1111122 
COMPS,ioos:station:USF.COMPS:BGC:1,2009-01-01T15:18:00Z,26.4040,-81.8810,-0.619,1111122 
COMPS,ioos:station:USF.COMPS:BGC:1,2009-01-01T15:24:00Z,26.4040,-81.8810,-0.61,1111122 
COMPS,ioos:station:USF.COMPS:BGC:1,2009-01-01T15:30:00Z,26.4040,-81.8810,-0.608,1111122 
COMPS,ioos:station:USF.COMPS:BGC:1,2009-01-01T15:36:00Z,26.4040,-81.8810,-0.594,1111122 
COMPS,ioos:station:USF.COMPS:BGC:1,2009-01-01T15:42:00Z,26.4040,-81.8810,-0.587,1111122 
COMPS,ioos:station:USF.COMPS:BGC:1,2009-01-01T15:48:00Z,26.4040,-81.8810,-0.568,1111122 
COMPS,ioos:station:USF.COMPS:BGC:1,2009-01-01T15:54:00Z,26.4040,-81.8810,-0.565,1111122 
COMPS,ioos:station:USF.COMPS:BGC:1,2009-01-01T16:00:00Z,26.4040,-81.8810,-0.551,1111122 
COMPS,ioos:station:USF.COMPS:BGC:1,2009-01-01T16:06:00Z,26.4040,-81.8810,-0.54,1111122 
COMPS,ioos:station:USF.COMPS:BGC:1,2009-01-01T16:12:00Z,26.4040,-81.8810,-0.533,1111122 
COMPS,ioos:station:USF.COMPS:BGC:1,2009-01-01T16:18:00Z,26.4040,-81.8810,-0.528,1111122 
COMPS,ioos:station:USF.COMPS:BGC:1,2009-01-01T16:24:00Z,26.4040,-81.8810,-0.504,1111122 
COMPS,ioos:station:USF.COMPS:BGC:1,2009-01-01T16:30:00Z,26.4040,-81.8810,-0.492,1111122 
COMPS,ioos:station:USF.COMPS:BGC:1,2009-01-01T16:36:00Z,26.4040,-81.8810,-0.489,1111122 
COMPS,ioos:station:USF.COMPS:BGC:1,2009-01-01T16:42:00Z,26.4040,-81.8810,-0.475,1111122 
COMPS,ioos:station:USF.COMPS:BGC:1,2009-01-01T16:48:00Z,26.4040,-81.8810,-0.455,1111122 
COMPS,ioos:station:USF.COMPS:BGC:1,2009-01-01T16:54:00Z,26.4040,-81.8810,-0.443,1111122 
COMPS,ioos:station:USF.COMPS:BGC:1,2009-01-01T17:00:00Z,26.4040,-81.8810,-0.431,1111122 
COMPS,ioos:station:USF.COMPS:BGC:1,2009-01-01T17:06:00Z,26.4040,-81.8810,-0.418,1111122 
COMPS,ioos:station:USF.COMPS:BGC:1,2009-01-01T17:12:00Z,26.4040,-81.8810,-0.396,1111122 
COMPS,ioos:station:USF.COMPS:BGC:1,2009-01-01T17:18:00Z,26.4040,-81.8810,-0.387,1111122 
COMPS,ioos:station:USF.COMPS:BGC:1,2009-01-01T17:24:00Z,26.4040,-81.8810,-0.378,1111122 
COMPS,ioos:station:USF.COMPS:BGC:1,2009-01-01T17:30:00Z,26.4040,-81.8810,-0.36,1111122 
COMPS,ioos:station:USF.COMPS:BGC:1,2009-01-01T17:36:00Z,26.4040,-81.8810,-0.345,1111122 
COMPS,ioos:station:USF.COMPS:BGC:1,2009-01-01T17:42:00Z,26.4040,-81.8810,-0.33,1111122 
COMPS,ioos:station:USF.COMPS:BGC:1,2009-01-01T17:48:00Z,26.4040,-81.8810,-0.318,1111122 
COMPS,ioos:station:USF.COMPS:BGC:1,2009-01-01T17:54:00Z,26.4040,-81.8810,-0.301,1111122 
COMPS,ioos:station:USF.COMPS:BGC:1,2009-01-01T18:00:00Z,26.4040,-81.8810,-0.289,1111122 
COMPS,ioos:station:USF.COMPS:BGC:1,2009-01-01T18:06:00Z,26.4040,-81.8810,-0.278,1111122 
COMPS,ioos:station:USF.COMPS:BGC:1,2009-01-01T18:12:00Z,26.4040,-81.8810,-0.267,1111122 
COMPS,ioos:station:USF.COMPS:BGC:1,2009-01-01T18:18:00Z,26.4040,-81.8810,-0.257,1111122 
COMPS,ioos:station:USF.COMPS:BGC:1,2009-01-01T18:24:00Z,26.4040,-81.8810,-0.242,1111122 
COMPS,ioos:station:USF.COMPS:BGC:1,2009-01-01T18:30:00Z,26.4040,-81.8810,-0.23,1111122 
COMPS,ioos:station:USF.COMPS:BGC:1,2009-01-01T18:36:00Z,26.4040,-81.8810,-0.217,1111122 
COMPS,ioos:station:USF.COMPS:BGC:1,2009-01-01T18:42:00Z,26.4040,-81.8810,-0.205,1111122 
COMPS,ioos:station:USF.COMPS:BGC:1,2009-01-01T18:48:00Z,26.4040,-81.8810,-0.189,1111122 
COMPS,ioos:station:USF.COMPS:BGC:1,2009-01-01T18:54:00Z,26.4040,-81.8810,-0.174,1111122 
COMPS,ioos:station:USF.COMPS:BGC:1,2009-01-01T19:00:00Z,26.4040,-81.8810,-0.161,1111122 
COMPS,ioos:station:USF.COMPS:BGC:1,2009-01-01T19:06:00Z,26.4040,-81.8810,-0.155,1111122 
COMPS,ioos:station:USF.COMPS:BGC:1,2009-01-01T19:12:00Z,26.4040,-81.8810,-0.151,1111122 
COMPS,ioos:station:USF.COMPS:BGC:1,2009-01-01T19:18:00Z,26.4040,-81.8810,-0.136,1111122 
COMPS,ioos:station:USF.COMPS:BGC:1,2009-01-01T19:24:00Z,26.4040,-81.8810,-0.129,1111122 
COMPS,ioos:station:USF.COMPS:BGC:1,2009-01-01T19:30:00Z,26.4040,-81.8810,-0.12,1111122 
COMPS,ioos:station:USF.COMPS:BGC:1,2009-01-01T19:36:00Z,26.4040,-81.8810,-0.108,1111122 
COMPS,ioos:station:USF.COMPS:BGC:1,2009-01-01T19:42:00Z,26.4040,-81.8810,-0.092,1111122 
COMPS,ioos:station:USF.COMPS:BGC:1,2009-01-01T19:48:00Z,26.4040,-81.8810,-0.084,1111122 
COMPS,ioos:station:USF.COMPS:BGC:1,2009-01-01T19:54:00Z,26.4040,-81.8810,-0.083,1111122 
COMPS,ioos:station:USF.COMPS:BGC:1,2009-01-01T20:00:00Z,26.4040,-81.8810,-0.073,1111122 
COMPS,ioos:station:USF.COMPS:BGC:1,2009-01-01T20:06:00Z,26.4040,-81.8810,-0.058,1111122 
COMPS,ioos:station:USF.COMPS:BGC:1,2009-01-01T20:12:00Z,26.4040,-81.8810,-0.049,1111122 
COMPS,ioos:station:USF.COMPS:BGC:1,2009-01-01T20:18:00Z,26.4040,-81.8810,-0.046,1111122 
COMPS,ioos:station:USF.COMPS:BGC:1,2009-01-01T20:24:00Z,26.4040,-81.8810,-0.033,1111122 
COMPS,ioos:station:USF.COMPS:BGC:1,2009-01-01T20:30:00Z,26.4040,-81.8810,-0.024,1111122 
COMPS,ioos:station:USF.COMPS:BGC:1,2009-01-01T20:36:00Z,26.4040,-81.8810,-0.019,1111122 
COMPS,ioos:station:USF.COMPS:BGC:1,2009-01-01T20:42:00Z,26.4040,-81.8810,-0.011,1111122 
COMPS,ioos:station:USF.COMPS:BGC:1,2009-01-01T20:48:00Z,26.4040,-81.8810,-0.001,1111122 
COMPS,ioos:station:USF.COMPS:BGC:1,2009-01-01T20:54:00Z,26.4040,-81.8810,0.004,1111122 
COMPS,ioos:station:USF.COMPS:BGC:1,2009-01-01T21:00:00Z,26.4040,-81.8810,0.012,1111122 
COMPS,ioos:station:USF.COMPS:BGC:1,2009-01-01T21:06:00Z,26.4040,-81.8810,0.016,1111122 
COMPS,ioos:station:USF.COMPS:BGC:1,2009-01-01T21:12:00Z,26.4040,-81.8810,0.017,1111122 
COMPS,ioos:station:USF.COMPS:BGC:1,2009-01-01T21:18:00Z,26.4040,-81.8810,0.025,1111122 
COMPS,ioos:station:USF.COMPS:BGC:1,2009-01-01T21:24:00Z,26.4040,-81.8810,0.026,1111122 
COMPS,ioos:station:USF.COMPS:BGC:1,2009-01-01T21:30:00Z,26.4040,-81.8810,0.037,1111122 
COMPS,ioos:station:USF.COMPS:BGC:1,2009-01-01T21:36:00Z,26.4040,-81.8810,0.036,1111122 
COMPS,ioos:station:USF.COMPS:BGC:1,2009-01-01T21:42:00Z,26.4040,-81.8810,0.047,1111122 
COMPS,ioos:station:USF.COMPS:BGC:1,2009-01-01T21:48:00Z,26.4040,-81.8810,0.044,1111122 
COMPS,ioos:station:USF.COMPS:BGC:1,2009-01-01T21:54:00Z,26.4040,-81.8810,0.044,1111122 
COMPS,ioos:station:USF.COMPS:BGC:1,2009-01-01T22:00:00Z,26.4040,-81.8810,0.051,1111122 
COMPS,ioos:station:USF.COMPS:BGC:1,2009-01-01T22:06:00Z,26.4040,-81.8810,0.054,1111122 
COMPS,ioos:station:USF.COMPS:BGC:1,2009-01-01T22:12:00Z,26.4040,-81.8810,0.058,1111122 
COMPS,ioos:station:USF.COMPS:BGC:1,2009-01-01T22:18:00Z,26.4040,-81.8810,0.054,1111122 
COMPS,ioos:station:USF.COMPS:BGC:1,2009-01-01T22:24:00Z,26.4040,-81.8810,0.045,1111122 
COMPS,ioos:station:USF.COMPS:BGC:1,2009-01-01T22:30:00Z,26.4040,-81.8810,0.048,1111122 
COMPS,ioos:station:USF.COMPS:BGC:1,2009-01-01T22:36:00Z,26.4040,-81.8810,0.035,1111122 
COMPS,ioos:station:USF.COMPS:BGC:1,2009-01-01T22:42:00Z,26.4040,-81.8810,0.021,1111122 
COMPS,ioos:station:USF.COMPS:BGC:1,2009-01-01T22:48:00Z,26.4040,-81.8810,0.018,1111122 
COMPS,ioos:station:USF.COMPS:BGC:1,2009-01-01T22:54:00Z,26.4040,-81.8810,0.017,1111122 
COMPS,ioos:station:USF.COMPS:BGC:1,2009-01-01T23:00:00Z,26.4040,-81.8810,0.006,1111122 
COMPS,ioos:station:USF.COMPS:BGC:1,2009-01-01T23:06:00Z,26.4040,-81.8810,0.0,1114422 
COMPS,ioos:station:USF.COMPS:BGC:1,2009-01-01T23:12:00Z,26.4040,-81.8810,-0.005,1111122 
COMPS,ioos:station:USF.COMPS:BGC:1,2009-01-01T23:18:00Z,26.4040,-81.8810,-0.027,1111122 
COMPS,ioos:station:USF.COMPS:BGC:1,2009-01-01T23:24:00Z,26.4040,-81.8810,-0.037,1111122 
COMPS,ioos:station:USF.COMPS:BGC:1,2009-01-01T23:30:00Z,26.4040,-81.8810,-0.045,1111122 
COMPS,ioos:station:USF.COMPS:BGC:1,2009-01-01T23:36:00Z,26.4040,-81.8810,-0.057,1111122 
COMPS,ioos:station:USF.COMPS:BGC:1,2009-01-01T23:42:00Z,26.4040,-81.8810,-0.063,1111122 
COMPS,ioos:station:USF.COMPS:BGC:1,2009-01-01T23:48:00Z,26.4040,-81.8810,-0.074,1111122 
COMPS,ioos:station:USF.COMPS:BGC:1,2009-01-01T23:54:00Z,26.4040,-81.8810,-0.091,1111122 
COMPS,ioos:station:USF.COMPS:BGC:1,2009-01-02T00:00:00Z,26.4040,-81.8810,-0.098,1111122 
COMPS,ioos:station:USF.COMPS:BGC:1,2009-01-02T00:06:00Z,26.4040,-81.8810,-0.109,1111122 
COMPS,ioos:station:USF.COMPS:BGC:1,2009-01-02T00:12:00Z,26.4040,-81.8810,-0.119,1111122 
COMPS,ioos:station:USF.COMPS:BGC:1,2009-01-02T00:18:00Z,26.4040,-81.8810,-0.134,1111122 
COMPS,ioos:station:USF.COMPS:BGC:1,2009-01-02T00:24:00Z,26.4040,-81.8810,-0.138,1111122 
COMPS,ioos:station:USF.COMPS:BGC:1,2009-01-02T00:30:00Z,26.4040,-81.8810,-0.149,1111122 
COMPS,ioos:station:USF.COMPS:BGC:1,2009-01-02T00:36:00Z,26.4040,-81.8810,-0.166,1111122 
COMPS,ioos:station:USF.COMPS:BGC:1,2009-01-02T00:42:00Z,26.4040,-81.8810,-0.161,1111122 
COMPS,ioos:station:USF.COMPS:BGC:1,2009-01-02T00:48:00Z,26.4040,-81.8810,-0.172,1111122 
COMPS,ioos:station:USF.COMPS:BGC:1,2009-01-02T00:54:00Z,26.4040,-81.8810,-0.19,1111122 
COMPS,ioos:station:USF.COMPS:BGC:1,2009-01-02T01:00:00Z,26.4040,-81.8810,-0.195,1111122 
COMPS,ioos:station:USF.COMPS:BGC:1,2009-01-02T01:06:00Z,26.4040,-81.8810,-0.202,1111122 
COMPS,ioos:station:USF.COMPS:BGC:1,2009-01-02T01:12:00Z,26.4040,-81.8810,-0.224,1111122 
COMPS,ioos:station:USF.COMPS:BGC:1,2009-01-02T01:18:00Z,26.4040,-81.8810,-0.226,1111122 
COMPS,ioos:station:USF.COMPS:BGC:1,2009-01-02T01:24:00Z,26.4040,-81.8810,-0.225,1111122 
COMPS,ioos:station:USF.COMPS:BGC:1,2009-01-02T01:30:00Z,26.4040,-81.8810,-0.244,1111122 
COMPS,ioos:station:USF.COMPS:BGC:1,2009-01-02T01:36:00Z,26.4040,-81.8810,-0.256,1111122 
COMPS,ioos:station:USF.COMPS:BGC:1,2009-01-02T01:42:00Z,26.4040,-81.8810,-0.262,1111122 
COMPS,ioos:station:USF.COMPS:BGC:1,2009-01-02T01:48:00Z,26.4040,-81.8810,-0.266,1111122 
COMPS,ioos:station:USF.COMPS:BGC:1,2009-01-02T01:54:00Z,26.4040,-81.8810,-0.279,1111122 
COMPS,ioos:station:USF.COMPS:BGC:1,2009-01-02T02:00:00Z,26.4040,-81.8810,-0.281,1111122 
COMPS,ioos:station:USF.COMPS:BGC:1,2009-01-02T02:06:00Z,26.4040,-81.8810,-0.286,1111122 
COMPS,ioos:station:USF.COMPS:BGC:1,2009-01-02T02:12:00Z,26.4040,-81.8810,-0.291,1111122 
COMPS,ioos:station:USF.COMPS:BGC:1,2009-01-02T02:18:00Z,26.4040,-81.8810,-0.295,1111122 
COMPS,ioos:station:USF.COMPS:BGC:1,2009-01-02T02:24:00Z,26.4040,-81.8810,-0.302,1111122 
COMPS,ioos:station:USF.COMPS:BGC:1,2009-01-02T02:30:00Z,26.4040,-81.8810,-0.317,1111122 
COMPS,ioos:station:USF.COMPS:BGC:1,2009-01-02T02:36:00Z,26.4040,-81.8810,-0.312,1111122 
COMPS,ioos:station:USF.COMPS:BGC:1,2009-01-02T02:42:00Z,26.4040,-81.8810,-0.319,1111122 
COMPS,ioos:station:USF.COMPS:BGC:1,2009-01-02T02:48:00Z,26.4040,-81.8810,-0.32,1111122 